Zhongxing 6D

operational
NORAD ID: 52255 Int'l Des: 2022-038 Owner: CHISAE Country: CN
HEOCIRCULARGSOGEO

About Zhongxing 6D

Description loading...

Live Position

Loading 3D Globe...

Upcoming Passes

Altitude History

Altitude vs Time

uPlot chart will show altitude changes over time

Two-Line Element Set

1 52255U 22038A 25340.85530735 -.00000348 00000-0 00000-0 0 9990
2 52255 0.0231 274.8305 0003073 356.3548 237.7145 1.00270935 13496
Epoch: Dec 6, 2025 • Age: 10 hours

Current Status

Altitude 35775.1 km
Velocity 3.08 km/s
Sub-Earth Point -0.00°S, 125.12°E
Launch Date Apr 15, 2022
Age 3.6 years
Type other

Technical Details

Classification Payload
Mass 5250.00 kg
Dry Mass 2500.00 kg
Total Mass 5250.00 kg
Length 5.00 m
Diameter 2.50 m
Span 30.00 m
Shape Box + 2 Pan
Manufacturer CAST
Bus Type DFH-4
Phase Status In Orbit
Owner/State CHISAE/CN

Large Constellations

Loading constellations...